AB9HP Weather Reports


Display with metric or nautical units.
time (UTC)temp
F
wind
direction
speed
MPH
gust
MPH
rain 1hr
in
rain 24hr
in
rain mn
in
humidity
%
barometer
mb
20260904190028 80 65 3.0 11.0 0.00 0.00 0.00 82 1015.3
20260904184626 80 39 6.0 12.0 0.00 0.00 0.00 81 1015.7
20260904183024 80 105 4.0 12.0 0.00 0.00 0.00 82 1016.2
20260904181541 80 45 3.0 10.0 0.00 0.00 0.00 81 1016.3
20260904180018 80 101 3.0 17.0 0.00 0.00 0.00 82 1016.1
20260904174515 81 23 8.0 21.0 0.00 0.00 0.00 81 1015.7
20260904173019 83 20 9.0 18.0 0.00 0.00 0.00 80 1015.4
20260904171512 83 58 6.0 19.0 0.00 0.00 0.00 80 1015.5
20260904170008 88 13 11.0 20.0 0.00 0.00 0.00 73 1015.6
20260904164506 89 354 4.0 9.0 0.00 0.00 0.00 71 1015.3
20260904163006 90 266 6.0 10.0 0.00 0.00 0.00 69 1015.2
20260904161504 90 263 4.0 8.0 0.00 0.00 0.00 68 1015.2
20260904154556 89 235 4.0 11.0 0.00 0.00 0.00 71 1015.0
20260904153053 88 295 6.0 11.0 0.00 0.00 0.00 72 1015.1
20260904151547 87 281 3.0 10.0 0.00 0.00 0.00 73 1015.0
20260904150043 87 281 3.0 8.0 0.00 0.00 0.00 74 1015.1
20260904144539 86 243 1.0 7.0 0.00 0.00 0.00 75 1015.0
20260904143038 85 311 1.0 6.0 0.00 0.00 0.00 74 1014.7
20260904141530 83 197 3.0 8.0 0.00 0.00 0.00 76 1014.8
20260904140039 83 77 1.0 7.0 0.00 0.00 0.00 79 1014.8
20260904134526 82 231 3.0 6.0 0.00 0.00 0.00 79 1014.7
20260904133019 81 236 2.0 9.0 0.00 0.00 0.00 80 1014.7
20260904131513 80 266 2.0 5.0 0.00 0.00 0.00 82 1014.6
20260904130009 79 206 2.0 5.0 0.00 0.00 0.00 83 1014.4
20260904124509 78 212 2.0 4.0 0.00 0.00 0.00 84 1014.6
20260904123101 77 221 0.0 3.0 0.00 0.00 0.00 86 1014.7
20260904121558 76 149 0.0 1.0 0.00 0.00 0.00 87 1014.8
20260904120058 75 181 0.0 1.0 0.00 0.00 0.00 89 1014.7
20260904114550 75 181 0.0 1.0 0.00 0.00 0.00 89 1014.5
20260904113048 75 181 0.0 0.0 0.00 0.00 0.00 89 1014.1
20260904111558 75 181 0.0 0.0 0.00 0.00 0.00 90 1013.7
20260904110044 75 181 0.0 3.0 0.00 0.00 0.00 89 1013.5
20260904104551 75 205 1.0 5.0 0.00 0.00 0.00 89 1013.2
20260904103039 75 214 1.0 3.0 0.00 0.00 0.00 90 1012.9
20260904101541 75 212 0.0 0.0 0.00 0.00 0.00 89 1013.1
20260904100039 75 212 0.0 0.0 0.00 0.00 0.00 89 1013.3
20260904094535 76 212 0.0 0.0 0.00 0.00 0.00 88 1013.4
20260904093032 76 212 0.0 2.0 0.00 0.00 0.00 87 1013.6
20260904091532 76 210 0.0 1.0 0.00 0.00 0.00 87 1013.5
20260904090027 76 199 0.0 1.0 0.00 0.00 0.00 87 1013.5
20260904084533 76 207 0.0 6.0 0.00 0.00 0.00 87 1013.3
20260904083020 76 225 2.0 6.0 0.00 0.00 0.00 88 1013.0
20260904081512 75 172 1.0 4.0 0.00 0.00 0.00 88 1012.9
20260904080006 75 198 0.0 4.0 0.00 0.00 0.00 88 1013.0
20260904074501 75 209 1.0 3.0 0.00 0.00 0.00 88 1013.3
20260904073056 75 221 0.0 3.0 0.00 0.00 0.00 88 1013.6
20260904071604 75 228 1.0 5.0 0.00 0.00 0.00 88 1013.7
20260904070050 75 200 1.0 4.0 0.00 0.00 0.00 88 1013.8
20260904064547 75 135 0.0 5.0 0.00 0.00 0.00 88 1014.0
20260904063045 75 201 0.0 4.0 0.00 0.00 0.00 88 1014.2
20260904061543 75 203 0.0 3.0 0.00 0.00 0.00 88 1014.2
20260904060041 75 159 1.0 3.0 0.00 0.00 0.00 88 1014.3
20260904054542 74 214 2.0 5.0 0.00 0.00 0.00 88 1014.4
20260904053040 74 176 3.0 6.0 0.00 0.00 0.00 88 1014.4
20260904051535 74 195 0.0 2.0 0.00 0.00 0.00 89 1014.4
20260904050038 74 204 1.0 5.0 0.00 0.00 0.00 89 1014.6
20260904044531 74 199 1.0 3.0 0.00 0.00 0.00 90 1014.4
20260904043029 75 155 0.0 4.0 0.00 0.00 0.00 90 1014.4
20260904041526 75 178 1.0 3.0 0.00 0.00 0.00 90 1014.3
20260904040024 75 197 1.0 4.0 0.00 0.00 0.00 90 1014.1
20260904034517 75 155 2.0 6.0 0.00 0.00 0.00 90 1014.1
20260904033015 75 179 1.0 5.0 0.00 0.00 0.00 89 1014.2
20260904031513 75 131 0.0 3.0 0.00 0.00 0.00 88 1014.4
20260904030010 75 110 1.0 5.0 0.00 0.00 0.00 88 1014.3
20260904024507 76 157 3.0 6.0 0.00 0.00 0.00 87 1014.3
20260904023004 76 116 2.0 4.0 0.00 0.00 0.00 86 1014.5
20260904021502 76 128 0.0 4.0 0.00 0.00 0.00 87 1014.5
20260904020101 76 85 1.0 4.0 0.00 0.00 0.00 87 1014.4
20260904014604 76 116 0.0 4.0 0.00 0.00 0.00 86 1014.4
20260904013111 76 98 2.0 5.0 0.00 0.00 0.00 86 1014.4
20260904011556 77 107 2.0 4.0 0.00 0.00 0.00 85 1014.4
20260904010052 77 72 0.0 2.0 0.00 0.00 0.00 85 1014.5
20260904004550 77 125 1.0 6.0 0.00 0.00 0.00 85 1014.6
20260904003046 77 129 1.0 6.0 0.00 0.00 0.00 84 1014.3
20260904001545 78 98 1.0 8.0 0.00 0.00 0.00 82 1014.1
20260904000042 77 49 4.0 11.0 0.00 0.00 0.00 83 1014.0
20260903234539 78 83 5.0 16.0 0.00 0.00 0.00 83 1014.2
20260903233037 79 48 7.0 19.0 0.00 0.00 0.00 80 1014.1
20260903231535 84 338 4.0 11.0 0.00 0.00 0.00 73 1013.9
20260903230038 85 98 0.0 4.0 0.00 0.00 0.00 70 1012.9
20260903224535 86 91 1.0 6.0 0.00 0.00 0.00 70 1013.0
20260903223029 90 17 11.0 21.0 0.00 0.00 0.00 66 1013.4
20260903221526 94 239 4.0 10.0 0.00 0.00 0.00 61 1012.6
20260903220034 94 209 6.0 12.0 0.00 0.00 0.00 60 1012.3
20260903214514 94 209 2.0 14.0 0.00 0.00 0.00 59 1012.4
20260903213021 94 266 5.0 16.0 0.00 0.00 0.00 59 1012.3
20260903211510 95 249 2.0 13.0 0.00 0.00 0.00 59 1012.3
20260903210007 94 232 4.0 15.0 0.00 0.00 0.00 59 1012.4
20260903204510 95 248 6.0 16.0 0.00 0.00 0.00 58 1012.4
20260903203002 94 169 7.0 14.0 0.00 0.00 0.00 58 1012.3
20260903201600 94 196 6.0 12.0 0.00 0.00 0.00 59 1012.1
20260903200106 94 230 8.0 16.0 0.00 0.00 0.00 59 1012.2
20260903194557 94 214 6.0 14.0 0.00 0.00 0.00 59 1012.6
20260903193053 93 224 5.0 13.0 0.00 0.00 0.00 62 1012.9
20260903191544 94 248 4.0 12.0 0.00 0.00 0.00 61 1013.4